www.pogodaiklimat.ru

Погода и климат >> Архив погоды >> Колумбия >> Barranquilla


ПОГОДА в Barranquilla

  • Прогноз погоды в Barranquilla
  • Монитор погоды в Barranquilla
  • Климат города

АРХИВ ПОГОДЫ в Barranquilla

Время (UTC), дата Ветер
(напр.,м/с)
 
Видим.   Явления Облачность Т
(С)
Тd
(С)
f
(%)
Тe
(С)
Тes
(С)
Комфортность P
(гПа)
Po
(гПа)
Тmin
(С)
Tmax
(С)
R
(мм)
R24
(мм)
S
(см)
03 13.07 С 8 10 км мгла 4/1 450 м
[St Cs]
+27.7 +24.3 82 +39 +39 очень
душно
1010.3 1006.8
06 13.07 С 7 10 км мгла 4/1 450 м
[St Cs]
+27.2 +24.2 84 +38 +38 очень
душно
1009.3 1005.8
09 13.07 С 5 10 км мгла 8/4 450 м
[St Cs]
+27.2 +24.2 84 +38 +38 очень
душно
1008.8 1005.3
12 13.07 С 3 10 км мгла 4/3 300 м
[St Cs]
+27.5 +24.3 83 +39 +40 очень
душно
1009.4 1005.9 +26.0
15 13.07 СВ 3 12 км мгла 3/3 450 м
[Cu hum Cs]
+30.8 +25.6 74 +45 +55 опасность
перегрева
1010.1 1006.6
18 13.07 С 6 20 км мгла 3/3 450 м
[Cu hum]
+32.1 +24.1 63 +44 +50 опасность
перегрева
1009.2 1005.7
00 14.07 С 5 15 км мгла 4/3 450 м
[Cu hum Ac trans]
+27.6 +24.2 82 +39 +39 очень
душно
1008.8 1005.3 +32.8
03 14.07 С 4 10 км мгла 3/3 450 м
[Cu hum]
+27.0 +24.3 85 +38 +38 очень
душно
1010.3 1006.8
09 14.07 С 3 10 км мгла 4/4 450 м
[St]
+26.5 +24.2 87 +37 +37 очень
душно
1008.8 1005.3
12 14.07 СВ 3 8000 м туман на расстоянии 10/8 200 м
[St Ac trans Cc]
+27.2 +24.9 87 +39 +39 очень
душно
1010.0 1006.5 +26.0
15 14.07 В 5 10 км мгла 10/3 450 м
[St Cs]
+30.6 +25.1 73 +44 +49 опасность
перегрева
1011.3 1007.8
18 14.07 С 8 10 км мгла 10/3 600 м
[St Cs]
+31.7 +25.2 69 +46 +48 опасность
перегрева
1009.8 1006.3
21 14.07 С 7 10 км мгла 8/3 600 м
[St Cs]
+29.2 +24.6 76 +41 +42 опасность
перегрева
1008.5 1005.0
00 15.07 С 4 10 км мгла 6/3 450 м
[St Cs]
+27.3 +24.6 85 +39 +39 очень
душно
1008.8 1005.3 +32.5
03 15.07 С 5 10 км мгла 3/3 450 м
[St]
+27.1 +24.4 85 +38 +38 очень
душно
1010.1 1006.6
06 15.07 С 5 10 км мгла ясно +26.8 +24.2 86 +37 +37 очень
душно
1008.9 1005.4
09 15.07 С 5 10 км мгла ясно +26.4 +24.1 87 +37 +37 очень
душно
1008.1 1004.6
12 15.07 В 3 10 км мгла 5/4 300 м
[Frnb Cs]
+26.2 +25.1 94 +38 +39 очень
душно
1009.4 1005.9 +25.2
15 15.07 С 3 12 км мгла 8/4 360 м
[Cu hum Cs]
+31.8 +24.8 67 +45 +52 опасность
перегрева
1009.8 1006.3
18 15.07 СВ 6 10 км мгла 10/4 600 м
[St Cs]
+34.5 +24.1 55 +47 +50 опасность
перегрева
1007.8 1004.3
21 15.07 С 9 10 км мгла 10/4 600 м
[St Cs]
+30.2 +24.3 71 +42 +43 опасность
перегрева
1007.3 1003.8
00 16.07 С 6 10 км мгла 6/1 600 м
[St Cs]
+28.0 +23.7 77 +38 +38 очень
душно
1007.8 1004.3 +35.2
03 16.07 С 4 10 км мгла 4/1 600 м
[St Ci sp]
+27.2 +24.2 84 +38 +38 очень
душно
1009.9 1006.4
09 16.07 С 6 10 км мгла 1/1 450 м
[St]
+9.4 +24.8 100
12 16.07 С 5 8000 м мгла 6/4 300 м
[Sc diur, vesp Cs]
+26.6 +24.6 89 +38 +38 очень
душно
1010.0 1006.5 +25.4
15 16.07 С 3 10 км мгла 4/0
[Cs]
+31.2 +24.6 68 +44 +55 опасность
перегрева
1010.8 1007.3
18 16.07 С 9 10 км мгла 5/3 600 м
[Cu med, cong Cs]
+31.9 +25.4 69 +46 +48 опасность
перегрева
1010.7 1007.2
21 16.07 С 8 4600 м мгла 8/3 600 м
[Cb cap Cs]
+29.6 +25.1 77 +43 +44 опасность
перегрева
1009.0 1005.5
00 17.07 С 5 10 км мгла 4/3 450 м
[St Cs]
+27.2 +24.4 85 +38 +38 очень
душно
1009.9 1006.4 +32.5
03 17.07 С 4 10 км мгла 3/3 450 м
[St]
+26.9 +24.7 88 +38 +38 очень
душно
1012.2 1008.7
06 17.07 С 4 10 км мгла 3/3 450 м
[St]
+26.5 +24.7 90 +38 +38 очень
душно
1010.8 1007.3
09 17.07 С 2 10 км мгла 4/4 450 м
[St]
+25.8 +24.8 94 +37 +37 очень
душно
1010.4 1006.9
12 17.07 В 3 4000 м дымка {туман} 10/8 200 м
[St Cs]
+26.2 +25.9 98 +39 +39 очень
душно
1012.1 1008.6 +25.1
15 17.07 нст 1 10 км мгла 10/5 360 м
[St Cs]
+29.7 +25.4 78 +44 +51 опасность
перегрева
1012.5 1009.0
18 17.07 СВ 7 10 км мгла 5/3 450 м
[Cu med, cong Ci sp]
+33.2 +25.6 64 +48 +52 опасность
перегрева
1011.1 1007.6
21 17.07 С 5 10 км мгла 6/1 450 м
[Cu hum Cs]
+32.2 +24.7 65 +45 +48 опасность
перегрева
1010.1 1006.6
00 18.07 С 5 10 км мгла 8/3 450 м
[St Cs]
+28.2 +24.2 79 +39 +39 очень
душно
1009.8 1006.3 +33.4
03 18.07 С 5 10 км мгла ?/? +27.7 +24.1 81 +39 +39 очень
душно
1010.8 1007.3
06 18.07 ЮЗ 2 10 км мгла 8/3 450 м
[St Cs]
+25.8 +24.3 91 +36 +36 очень
душно
1010.1 1006.6
09 18.07 В 2 10 км мгла 9/4 360 м
[St Cs]
+24.7 +24.0 96 +34 +34 очень
душно
1009.9 1006.4
12 18.07 штиль 0 10 км мгла {туман} 8/3 300 м
[St Cs]
+25.7 +24.7 94 +36 +38 очень
душно
1010.9 1007.4 +23.8
15 18.07 штиль 0 10 км мгла 10/4 600 м
[St Cs]
+31.6 +24.7 67 +45 +55 опасность
перегрева
1011.7 1008.2
18 18.07 СВ 8 10 км мгла 10/4 600 м
[St Cs]
+32.2 +25.0 66 +46 +48 опасность
перегрева
1010.2 1006.7
21 18.07 штиль 0 50 км мгла ?/? +30.8 +23.7 66 +42 +42 опасность
перегрева
1008.4 1008.0
00 19.07 С 6 10 км мгла 8/1 450 м
[Cu hum Cs]
+27.9 +23.6 77 +38 +38 очень
душно
1008.5 1005.0 +32.9
03 19.07 С 7 10 км мгла 3/0
[Ci sp]
+27.2 +24.2 84 +38 +38 очень
душно
1007.6 1006.1
09 19.07 С 7 10 км мгла ясно +26.0 +24.6 92 +37 +37 очень
душно
1008.9 1005.4
12 19.07 С 8 10 км мгла 5/3 300 м
[St Cs]
+26.8 +24.5 87 +38 +38 очень
душно
1009.7 1006.2 +25.9
15 19.07 штиль 0 10 км мгла 4/3 450 м
[St Cs]
+30.7 +23.9 67 +42 +57 опасность
перегрева
1010.1 1006.6
18 19.07 С 9 10 км мгла 8/3 450 м
[Sc diur, vesp Cs]
+31.7 +24.8 67 +45 +46 опасность
перегрева
1009.2 1005.7
21 19.07 С 8 10 км мгла 8/3 450 м
[Sc diur, vesp Cs]
+29.0 +24.7 78 +41 +42 опасность
перегрева
1007.7 1004.1

 

Местоположение метеостанции Barranquilla (Колумбия): широта 10.88 долгота -74.78 высота над уровнем моря 30 м.

В архиве по умолчанию представлена погода в Barranquilla за последнюю неделю. Архивные данные за месяц целиком и за предыдущие месяцы, начиная с января 2011 года, Вы можете получить, выбрав интересующий диапазон дат из раскрывающегося списка и нажав кнопку "Ввод!".


*Определитесь, кто Вы:
робот инопланетянин человек

Внимание! Время в таблицах - всемирное. Для получения местного времени необходимо прибавить поправку, которая в Barranquilla равна -5 ч.

Смотрите также архив погоды в соседних городах и на ближайших метеорологических станциях:

Погода в Santa Marta (Колумбия) (66 км)
Погода в Cartagena (Колумбия) (93 км)
Погода в Valledupar (Колумбия) (175 км)
Погода в Riohacha (Колумбия) (214 км)
Погода в Monteria (Колумбия) (257 км)
Погода в Maracaibo - La Chinit (Венесуэла) (335 км)
Погода в Maracaibo - La Canada (Венесуэла) (344 км)
Погода в Apartado (Колумбия) (400 км)
Погода в Cucuta (Колумбия) (412 км)
Погода в San Antonio del Tachira (Венесуэла) (423 км)

Пояснения к столбцам:

Ветер - указаны скорость ветра в м/с - средняя за 10 мин, порывы в срок и между сроками (в фигурных скобках) и направление, откуда дует ветер: С - северный, СВ - северо-восточный, В - восточный, ЮВ - юго-восточный, Ю - южный, ЮЗ - юго-западный, З - западный, СЗ - северо-западный.
Видимость - горизонтальная дальность видимости в метрах или километрах. При видимости от 1 до 10 км при отсутствии осадков обычно наблюдается дымка, при ухудшении видимости до 1 км и менее - туман. В сухую погоду видимость может ухудшаться дымом, пылью или мглою.
Явления - указаны атмосферные явления, наблюдавшиеся в срок или в последний час перед сроком; фигурными скобками обозначены явления, наблюдавшиеся между сроками (за 1-3 часа до срока); квадратными скобками обозначены град или гололедные отложения с указанием их диаметра в мм.
Облачность - указаны через наклонную черту общая и нижняя облачность в баллах и высота нижней границы облаков в метрах; квадратными скобками обозначены формы облаков: Ci - перистые, Cs - перисто-слоистые, Cc - перисто-кучевые, Ac - высококучевые, As - высокослоистые, Sc - слоисто-кучевые, Ns - слоисто-дождевые, Cu - кучевые, Cb - кучево-дождевые. Подробнее классификацию облаков см. в Атласе облаков (PDF).
T - Температура воздуха - температура, измеренная на высоте 2 м над землей.
Td - Температура точки росы - температура, при понижении до которой содержащийся в воздухе водяной пар достигнет насыщения.
f - Относительная влажность воздуха - влажноcть воздуха, измеренная на высоте 2 м над землей.
Te - Эффективная температура - температура, которую ощущает одетый по сезону человек в тени. Характеристика душности погоды. При расчете учитывается влияние влажности воздуха и скорости ветра на теплоощущения человека.
Tes - Эффективная температура на солнце - температура, которую ощущает человек, с поправкой на солнечный нагрев. Характеристика знойности погоды. Зависит от высоты солнца над горизонтом, облачности и скорости ветра. Ночью, в пасмурную погоду, а также при ветре 12 м/с и более поправка равна нулю.
P - Атмосферное давление - приведенное к уровню моря атмосферное давление.
Po - Атмосферное давление - измеренное на уровне метеостанции атмосферное давление.
Tmin - Минимальная температура - минимум температуры воздуха на высоте 2 м над землей.
Tmax - Максимальная температура - максимум температуры воздуха на высоте 2 м над землей.
R - Количество осадков - Количество выпавших осадков за период времени, мм. При наведении курсора мыши на число - период времени, за который выпало указанное количество осадков.
R24 - Количество осадков - Количество выпавших осадков за 24 часа, мм.
S - Снежный покров - Высота снежного покрова, см. При наведении курсора мыши на число - состояние снежного покрова и степень покрытия местности в баллах.